Regional Weather Roundup
Issued by NWS Goodland, KS

Home | Current Version | Previous Version | Text Only | Print | Product List | Glossary Off
Versions: 1 2 3 4 5 6 7 8 9 10 11 12 13 14 15 16 17 18 19 20 21 22 23 24 25 26 27 28 29 30 31 32 33 34 35 36 37 38 39 40 41 42 43 44 45 46 47 48 49 50

171
ASUS43 KGLD 060908
RWRGLD

GOODLAND FORECAST AREA HOURLY WEATHER ROUNDUP
NATIONAL WEATHER SERVICE GOODLAND KS
200 AM MST SAT FEB 06 2016

...OFFICIAL OBSERVATIONS...

CITY           SKY/WX    TMP DP  RH WIND       PRES   REMARKS
GOODLAND KS    CLOUDY    13   6  74 W9        30.28F
HILL CITY KS   CLEAR     20  15  81 W8        30.31F
IMPERIAL NEB   CLOUDY    20   9  62 W14       30.26S WCI   7
MCCOOK NEB     CLOUDY    14  10  84 W8        30.29R
AKRON CO       CLOUDY    20   8  60 SW14      30.23F WCI   7
BURLINGTON CO  CLOUDY    14   4  64 W12       30.27F WCI   0
LIMON CO       CLOUDY    -2  -6  83 N8        30.27S
$$

...UNOFFICIAL OBSERVATIONS...

CITY           SKY/WX    TMP DP  RH WIND       PRES   REMARKS
COLBY KS       CLEAR     18  12  79 W14       30.30S WCI   4
GOVE KS          N/A     16  32 100 MISG        N/A
LENORA KS        N/A     20  32 100 MISG        N/A
NORTON KS      CLEAR     16  10  79 W7        30.28F
SHARON SPRINGS   N/A     15  10  78 W6          N/A
KIT CARSON CO    N/A     14   7  73 MISG        N/A
YUMA CO          N/A     14   8  78 W8          N/A
$$




USA.gov is the U.S. government's official web portal to all federal, state and local government web resources and services.